"Period start","avg(HW err(1)/warn(2) (#))","avg(Visibility (m))","avg(Weather code (#))","avg(Precip intensity (mm/h))","min(HW err(1)/warn(2) (#))","max(HW err(1)/warn(2) (#))","std(HW err(1)/warn(2) (#))","med(HW err(1)/warn(2) (#))","min(Visibility (m))","max(Visibility (m))","std(Visibility (m))","med(Visibility (m))","min(Weather code (#))","max(Weather code (#))","std(Weather code (#))","med(Weather code (#))","min(Precip intensity (mm/h))","max(Precip intensity (mm/h))","std(Precip intensity (mm/h))","med(Precip intensity (mm/h))"
2017-08-22 00:00:00,0,3909,10,0.00,0,0,0,0,3577,4333,197,3866,10,10,0,10,0.00,0.00,0.00,0.00
2017-08-22 00:10:00,0,4551,10,0.00,0,0,0,0,4227,5210,324,4412,10,10,0,10,0.00,0.00,0.00,0.00
2017-08-22 00:20:00,0,4236,10,0.00,0,0,0,0,3310,5052,603,4248,10,10,0,10,0.00,0.00,0.00,0.00
2017-08-22 00:30:00,0,2876,10,0.00,0,0,0,0,2653,3047,131,2902,10,10,0,10,0.00,0.00,0.00,0.00
2017-08-22 00:40:00,0,2773,10,0.00,0,0,0,0,2532,3000,114,2788,10,10,0,10,0.00,0.00,0.00,0.00
2017-08-22 00:50:00,0,2813,10,0.00,0,0,0,0,2542,3163,167,2762,10,10,0,10,0.00,0.00,0.00,0.00
2017-08-22 01:00:00,0,3306,10,0.00,0,0,0,0,3079,3680,177,3275,10,10,0,10,0.00,0.00,0.00,0.00
2017-08-22 01:10:00,0,4068,10,0.00,0,0,0,0,3727,4728,339,3944,10,10,0,10,0.00,0.00,0.00,0.00
2017-08-22 01:20:00,0,4874,10,0.00,0,0,0,0,4245,5488,423,4878,10,10,0,10,0.00,0.00,0.00,0.00
2017-08-22 01:30:00,0,7097,10,0.00,0,0,0,0,5780,9428,1134,7156,10,10,0,10,0.00,0.00,0.00,0.00
2017-08-22 01:40:00,0,8000,6,0.00,0,0,0,0,5789,12902,2192,7446,4,10,3,4,0.00,0.00,0.00,0.00
2017-08-22 01:50:00,0,11622,4,0.00,0,0,0,0,7818,14291,1882,11969,0,4,1,4,0.00,0.00,0.00,0.00
2017-08-22 02:00:00,0,24617,0,0.00,0,0,0,0,12978,36756,8700,21765,0,0,0,0,0.00,0.00,0.00,0.00
2017-08-22 02:10:00,0,37751,0,0.00,0,0,0,0,30354,43836,4156,37762,0,0,0,0,0.00,0.00,0.00,0.00
2017-08-22 02:20:00,0,38055,0,0.00,0,0,0,0,25070,47809,7227,39934,0,0,0,0,0.00,0.00,0.00,0.00
2017-08-22 02:30:00,0,45722,0,0.00,0,0,0,0,39358,50000,4173,46680,0,0,0,0,0.00,0.00,0.00,0.00
2017-08-22 02:40:00,0,36791,0,0.00,0,0,0,0,24778,48622,8415,38384,0,0,0,0,0.00,0.00,0.00,0.00
2017-08-22 02:50:00,0,27237,0,0.00,0,0,0,0,10893,42715,11740,28520,0,0,0,0,0.00,0.00,0.00,0.00
2017-08-22 03:00:00,0,10303,2,0.00,0,0,0,0,3053,20818,7006,5992,0,10,3,0,0.00,0.00,0.00,0.00
2017-08-22 03:10:00,0,2384,10,0.00,0,0,0,0,1983,3216,340,2332,10,10,0,10,0.00,0.00,0.00,0.00
2017-08-22 03:20:00,0,3107,10,0.00,0,0,0,0,2168,4186,785,2862,10,10,0,10,0.00,0.00,0.00,0.00
2017-08-22 03:30:00,0,9784,10,0.00,0,0,0,0,3756,20668,5527,8378,10,10,0,10,0.00,0.00,0.00,0.00
2017-08-22 03:40:00,0,26854,4,0.00,0,0,0,0,23961,30147,1871,26808,0,10,5,0,0.00,0.00,0.00,0.00
2017-08-22 03:50:00,0,24715,0,0.00,0,0,0,0,19180,29317,3013,25164,0,0,0,0,0.00,0.00,0.00,0.00
2017-08-22 04:00:00,0,16734,0,0.00,0,0,0,0,15183,18045,887,16888,0,0,0,0,0.00,0.00,0.00,0.00
2017-08-22 04:10:00,0,21932,0,0.00,0,0,0,0,18671,30012,3403,21056,0,0,0,0,0.00,0.00,0.00,0.00
2017-08-22 04:20:00,0,27303,0,0.00,0,0,0,0,23401,33552,3148,26032,0,0,0,0,0.00,0.00,0.00,0.00
2017-08-22 04:30:00,0,34183,0,0.00,0,0,0,0,28125,43855,4898,33425,0,0,0,0,0.00,0.00,0.00,0.00
2017-08-22 04:40:00,0,29327,0,0.00,0,0,0,0,23766,36312,3827,29522,0,0,0,0,0.00,0.00,0.00,0.00
2017-08-22 04:50:00,0,33301,0,0.00,0,0,0,0,27043,40381,4195,32980,0,0,0,0,0.00,0.00,0.00,0.00
2017-08-22 05:00:00,0,37317,0,0.00,0,0,0,0,30574,44087,3812,37606,0,0,0,0,0.00,0.00,0.00,0.00
2017-08-22 05:10:00,0,38308,0,0.00,0,0,0,0,28299,44115,4695,39234,0,0,0,0,0.00,0.00,0.00,0.00
2017-08-22 05:20:00,0,37653,0,0.00,0,0,0,0,34150,43486,2759,37384,0,0,0,0,0.00,0.00,0.00,0.00
2017-08-22 05:30:00,0,33003,0,0.00,0,0,0,0,28220,39267,3521,32798,0,0,0,0,0.00,0.00,0.00,0.00
2017-08-22 05:40:00,0,38887,0,0.00,0,0,0,0,30863,46594,4840,39520,0,0,0,0,0.00,0.00,0.00,0.00
2017-08-22 05:50:00,0,39910,0,0.00,0,0,0,0,30456,47417,5298,42224,0,0,0,0,0.00,0.00,0.00,0.00
2017-08-22 06:00:00,0,40796,0,0.00,0,0,0,0,32442,47277,4519,41195,0,0,0,0,0.00,0.00,0.00,0.00
2017-08-22 06:10:00,0,36604,0,0.00,0,0,0,0,30402,46660,4361,36460,0,0,0,0,0.00,0.00,0.00,0.00
2017-08-22 06:20:00,0,32083,0,0.00,0,0,0,0,22742,44635,7659,30386,0,0,0,0,0.00,0.00,0.00,0.00
2017-08-22 06:30:00,0,37197,0,0.00,0,0,0,0,31359,41784,3193,37707,0,0,0,0,0.00,0.00,0.00,0.00
2017-08-22 06:40:00,0,33712,0,0.00,0,0,0,0,30022,39578,2903,33246,0,0,0,0,0.00,0.00,0.00,0.00
2017-08-22 06:50:00,0,38018,0,0.00,0,0,0,0,27502,47642,5869,37629,0,0,0,0,0.00,0.00,0.00,0.00
2017-08-22 07:00:00,0,36571,0,0.00,0,0,0,0,31506,45397,4181,36192,0,0,0,0,0.00,0.00,0.00,0.00
2017-08-22 07:10:00,0,33991,0,0.00,0,0,0,0,28000,37686,3004,34265,0,0,0,0,0.00,0.00,0.00,0.00
2017-08-22 07:20:00,0,23234,0,0.00,0,0,0,0,19223,29285,3312,23188,0,0,0,0,0.00,0.00,0.00,0.00
2017-08-22 07:30:00,0,14625,0,0.00,0,0,0,0,7209,22837,5130,14326,0,0,0,0,0.00,0.00,0.00,0.00
2017-08-22 07:40:00,0,12514,0,0.00,0,0,0,0,7919,19029,4062,11254,0,0,0,0,0.00,0.00,0.00,0.00
2017-08-22 07:50:00,0,8173,6,0.00,0,0,0,0,5539,12342,1967,7738,0,10,5,10,0.00,0.00,0.00,0.00
2017-08-22 08:00:00,0,5456,10,0.00,0,0,0,0,4152,7713,1077,5230,10,10,0,10,0.00,0.00,0.00,0.00
2017-08-22 08:10:00,0,4517,46,0.18,0,0,0,0,3346,6548,888,4262,10,61,19,52,0.00,0.95,0.26,0.12
2017-08-22 08:20:00,0,3661,15,0.01,0,0,0,0,2578,4424,585,3792,10,61,15,10,0.00,0.15,0.05,0.00
2017-08-22 08:30:00,0,2615,10,0.00,0,0,0,0,2174,3716,414,2476,10,10,0,10,0.00,0.00,0.00,0.00
2017-08-22 08:40:00,0,2340,10,0.00,0,0,0,0,1800,3275,377,2242,10,10,0,10,0.00,0.00,0.00,0.00
2017-08-22 08:50:00,0,3389,10,0.00,0,0,0,0,2505,4813,719,3364,10,10,0,10,0.00,0.00,0.00,0.00
2017-08-22 09:00:00,0,3630,10,0.00,0,0,0,0,2641,4718,659,3518,10,10,0,10,0.00,0.00,0.00,0.00
2017-08-22 09:10:00,0,5050,10,0.00,0,0,0,0,3180,8741,1606,4548,10,10,0,10,0.00,0.00,0.00,0.00
2017-08-22 09:20:00,1,4389,10,0.00,0,2,1,2,3383,5972,793,4440,10,10,0,10,0.00,0.00,0.00,0.00
2017-08-22 09:30:00,0,8829,10,0.00,0,0,0,0,4774,15377,3861,6546,10,10,0,10,0.00,0.00,0.00,0.00
2017-08-22 09:40:00,0,11155,8,0.00,0,0,0,0,7121,19549,3601,10747,0,10,4,10,0.00,0.00,0.00,0.00
2017-08-22 09:50:00,0,5063,9,0.00,0,0,0,0,3822,7866,1159,4713,0,10,3,10,0.00,0.00,0.00,0.00
2017-08-22 10:00:00,0,3399,10,0.00,0,0,0,0,2830,5107,610,3246,10,10,0,10,0.00,0.00,0.00,0.00
2017-08-22 10:10:00,0,4460,10,0.00,0,0,0,0,1795,8868,2569,3512,10,10,0,10,0.00,0.00,0.00,0.00
2017-08-22 10:20:00,1,2165,10,0.00,0,2,1,1,1731,2591,258,2158,10,10,0,10,0.00,0.00,0.00,0.00
2017-08-22 10:30:00,1,2615,10,0.00,0,2,1,1,2225,2882,217,2694,10,10,0,10,0.00,0.00,0.00,0.00
2017-08-22 10:40:00,0,4520,10,0.00,0,0,0,0,3106,7240,1190,4304,10,10,0,10,0.00,0.00,0.00,0.00
2017-08-22 10:50:00,0,5515,10,0.00,0,0,0,0,3396,10921,1965,4887,10,10,0,10,0.00,0.00,0.00,0.00
2017-08-22 11:00:00,0,9108,10,0.00,0,0,0,0,5418,14041,2860,8660,10,10,0,10,0.00,0.00,0.00,0.00
2017-08-22 11:10:00,0,14699,7,0.00,0,0,0,0,9641,20726,3761,13600,0,10,5,10,0.00,0.00,0.00,0.00
2017-08-22 11:20:00,0,23682,0,0.00,0,0,0,0,9727,44601,11969,19280,0,0,0,0,0.00,0.00,0.00,0.00
2017-08-22 11:30:00,0,36765,0,0.00,0,0,0,0,22823,43942,7277,40040,0,0,0,0,0.00,0.00,0.00,0.00
2017-08-22 11:40:00,0,36919,0,0.00,0,0,0,0,32888,43651,3651,35924,0,0,0,0,0.00,0.00,0.00,0.00
2017-08-22 11:50:00,0,29486,0,0.00,0,0,0,0,8339,46900,13142,33190,0,0,0,0,0.00,0.00,0.00,0.00
2017-08-22 12:00:00,0,12052,0,0.00,0,0,0,0,8129,14740,2126,11908,0,0,0,0,0.00,0.00,0.00,0.00
2017-08-22 12:10:00,0,3544,8,0.00,0,0,0,0,2836,6067,941,3221,0,10,4,10,0.00,0.00,0.00,0.00
2017-08-22 12:20:00,0,3272,10,0.00,0,0,0,0,2834,3595,280,3291,10,10,0,10,0.00,0.00,0.00,0.00
2017-08-22 12:30:00,0,2589,10,0.00,0,0,0,0,928,4036,1025,2612,10,10,0,10,0.00,0.00,0.00,0.00
2017-08-22 12:40:00,0,548,24,0.00,0,0,0,0,368,1066,219,446,10,34,11,32,0.00,0.00,0.00,0.00
2017-08-22 12:50:00,0,305,34,0.00,0,0,0,0,259,365,31,298,34,34,0,34,0.00,0.00,0.00,0.00
2017-08-22 13:00:00,0,237,34,0.00,0,0,0,0,220,268,14,232,34,34,0,34,0.00,0.00,0.00,0.00
2017-08-22 13:10:00,0,280,34,0.00,0,2,1,0,246,307,16,278,34,34,0,34,0.00,0.00,0.00,0.00
2017-08-22 13:20:00,0,307,34,0.00,0,2,1,0,231,400,49,310,34,34,0,34,0.00,0.00,0.00,0.00
2017-08-22 13:30:00,0,569,34,0.00,0,0,0,0,380,955,184,507,33,34,0,34,0.00,0.00,0.00,0.00
2017-08-22 13:40:00,0,395,32,0.00,0,0,0,0,360,419,18,401,32,33,0,32,0.00,0.00,0.00,0.00
2017-08-22 13:50:00,0,452,32,0.00,0,0,0,0,364,523,52,451,32,32,0,32,0.00,0.00,0.00,0.00
2017-08-22 14:00:00,0,512,32,0.00,0,0,0,0,439,554,44,535,32,32,0,32,0.00,0.00,0.00,0.00
2017-08-22 14:10:00,0,544,32,0.00,0,0,0,0,458,670,63,538,32,32,0,32,0.00,0.00,0.00,0.00
2017-08-22 14:20:00,0,376,33,0.00,0,0,0,0,322,431,26,375,32,33,0,33,0.00,0.00,0.00,0.00
2017-08-22 14:30:00,0,352,33,0.00,0,0,0,0,333,399,19,348,33,33,0,33,0.00,0.00,0.00,0.00
2017-08-22 14:40:00,0,360,32,0.00,0,0,0,0,320,402,27,359,30,34,1,33,0.00,0.00,0.00,0.00
2017-08-22 14:50:00,0,384,34,0.00,0,0,0,0,337,440,26,385,34,34,0,34,0.00,0.00,0.00,0.00
2017-08-22 15:00:00,0,336,33,0.00,0,0,0,0,286,389,33,337,30,34,2,34,0.00,0.00,0.00,0.00
2017-08-22 15:10:00,0,369,33,0.00,0,0,0,0,329,435,37,364,33,33,0,33,0.00,0.00,0.00,0.00
2017-08-22 15:20:00,0,339,33,0.00,0,0,0,0,305,368,25,342,33,33,0,33,0.00,0.00,0.00,0.00
2017-08-22 15:30:00,0,288,33,0.00,0,0,0,0,246,318,22,291,33,33,0,33,0.00,0.00,0.00,0.00
2017-08-22 15:40:00,0,235,33,0.00,0,0,0,0,212,265,17,232,30,34,2,34,0.00,0.00,0.00,0.00
2017-08-22 15:50:00,0,325,34,0.00,0,0,0,0,265,372,36,332,34,34,0,34,0.00,0.00,0.00,0.00
2017-08-22 16:00:00,0,547,33,0.00,0,0,0,0,355,1034,193,483,30,34,1,33,0.00,0.00,0.00,0.00
2017-08-22 16:10:00,0,1012,32,0.00,0,0,0,0,659,1447,294,1045,32,33,0,32,0.00,0.00,0.00,0.00
2017-08-22 16:20:00,0,346,32,0.00,0,0,0,0,249,570,105,292,32,32,0,32,0.00,0.00,0.00,0.00
2017-08-22 16:30:00,0,271,32,0.00,0,0,0,0,251,320,19,264,32,33,0,32,0.00,0.00,0.00,0.00
2017-08-22 16:40:00,0,348,33,0.00,0,0,0,0,267,469,56,338,30,34,1,33,0.00,0.00,0.00,0.00
2017-08-22 16:50:00,0,608,34,0.00,0,0,0,0,392,823,115,602,34,34,0,34,0.00,0.00,0.00,0.00
2017-08-22 17:00:00,0,1046,34,0.00,0,0,0,0,644,1713,381,884,33,34,0,34,0.00,0.00,0.00,0.00
2017-08-22 17:10:00,0,1641,26,0.00,0,0,0,0,1450,1857,115,1660,20,33,6,25,0.00,0.00,0.00,0.00
2017-08-22 17:20:00,0,1268,20,0.00,0,0,0,0,1159,1423,85,1250,20,20,0,20,0.00,0.00,0.00,0.00
2017-08-22 17:30:00,0,553,28,0.00,0,0,0,0,348,912,184,542,20,32,5,32,0.00,0.00,0.00,0.00
2017-08-22 17:40:00,0,251,33,0.00,0,0,0,0,208,290,29,250,32,34,1,34,0.00,0.00,0.00,0.00
2017-08-22 17:50:00,0,197,34,0.00,0,0,0,0,184,210,9,200,34,34,0,34,0.00,0.00,0.00,0.00
2017-08-22 18:00:00,0,184,34,0.00,0,0,0,0,177,191,5,186,34,34,0,34,0.00,0.00,0.00,0.00
2017-08-22 18:10:00,0,190,34,0.00,0,0,0,0,176,223,13,190,34,34,0,34,0.00,0.00,0.00,0.00
2017-08-22 18:20:00,0,236,34,0.00,0,0,0,0,207,260,20,242,34,34,0,34,0.00,0.00,0.00,0.00
2017-08-22 18:30:00,0,329,34,0.00,0,0,0,0,277,359,25,336,33,34,0,34,0.00,0.00,0.00,0.00
2017-08-22 18:40:00,0,519,32,0.00,0,0,0,0,435,608,50,510,32,33,0,32,0.00,0.00,0.00,0.00
2017-08-22 18:50:00,0,561,32,0.00,0,0,0,0,469,791,92,544,32,32,0,32,0.00,0.00,0.00,0.00
2017-08-22 19:00:00,0,476,32,0.00,0,0,0,0,353,665,103,442,32,32,0,32,0.00,0.00,0.00,0.00
2017-08-22 19:10:00,0,374,32,0.00,0,0,0,0,309,458,47,364,32,32,0,32,0.00,0.00,0.00,0.00
2017-08-22 19:20:00,0,482,33,0.00,0,0,0,0,433,567,49,452,32,33,0,33,0.00,0.00,0.00,0.00
2017-08-22 19:30:00,0,594,33,0.00,0,0,0,0,423,813,121,599,33,33,0,33,0.00,0.00,0.00,0.00
2017-08-22 19:40:00,0,957,32,0.00,0,0,0,0,571,1355,222,954,30,33,1,33,0.00,0.00,0.00,0.00
2017-08-22 19:50:00,0,330,32,0.00,0,0,0,0,263,529,81,303,32,33,0,32,0.00,0.00,0.00,0.00
2017-08-22 20:00:00,0,247,33,0.00,0,0,0,0,229,263,13,250,33,34,0,33,0.00,0.00,0.00,0.00
2017-08-22 20:10:00,0,227,34,0.00,0,0,0,0,204,244,11,228,34,34,0,34,0.00,0.00,0.00,0.00
2017-08-22 20:20:00,0,248,53,5.03,0,0,0,0,223,279,18,254,34,62,13,61,0.00,13.05,4.70,4.62
2017-08-22 20:30:00,0,248,55,1.29,0,0,0,0,229,276,14,247,51,61,5,52,0.25,2.85,0.83,1.20
2017-08-22 20:40:00,0,251,37,0.10,0,0,0,0,231,265,8,253,34,51,7,34,0.00,0.70,0.22,0.00
2017-08-22 20:50:00,0,249,33,0.00,0,0,0,0,236,260,7,250,33,33,0,33,0.00,0.00,0.00,0.00
2017-08-22 21:00:00,0,264,33,0.00,0,0,0,0,232,306,19,264,33,33,0,33,0.00,0.00,0.00,0.00
2017-08-22 21:10:00,0,280,33,0.00,0,0,0,0,261,298,12,280,33,33,0,33,0.00,0.00,0.00,0.00
2017-08-22 21:20:00,0,313,33,0.00,0,0,0,0,277,414,38,304,33,33,0,33,0.00,0.00,0.00,0.00
2017-08-22 21:30:00,0,335,32,0.00,0,0,0,0,287,435,39,334,30,33,1,33,0.00,0.00,0.00,0.00
2017-08-22 21:40:00,0,323,31,0.00,0,0,0,0,291,398,31,314,30,32,1,31,0.00,0.00,0.00,0.00
2017-08-22 21:50:00,0,413,32,0.00,0,0,0,0,351,477,38,410,32,32,0,32,0.00,0.00,0.00,0.00
2017-08-22 22:00:00,0,766,32,0.00,0,0,0,0,380,1161,274,771,32,32,0,32,0.00,0.00,0.00,0.00
2017-08-22 22:10:00,0,4250,31,0.00,0,0,0,0,634,9051,2434,4452,31,32,0,31,0.00,0.00,0.00,0.00
2017-08-22 22:20:00,0,15244,31,0.00,0,0,0,0,10871,21760,3527,14437,31,31,0,31,0.00,0.00,0.00,0.00
2017-08-22 22:30:00,0,20440,31,0.00,0,0,0,0,15683,29335,4241,18480,31,31,0,31,0.00,0.00,0.00,0.00
2017-08-22 22:40:00,0,18550,23,0.00,0,0,0,0,16013,22812,1953,18190,20,31,5,20,0.00,0.00,0.00,0.00
2017-08-22 22:50:00,0,9928,20,0.00,0,0,0,0,4001,16884,4695,8532,20,20,0,20,0.00,0.00,0.00,0.00
2017-08-22 23:00:00,0,19754,20,0.00,0,0,0,0,4930,29340,8268,20706,20,20,0,20,0.00,0.00,0.00,0.00
2017-08-22 23:10:00,0,16823,20,0.00,0,0,0,0,9226,29988,5718,15667,20,20,0,20,0.00,0.00,0.00,0.00
2017-08-22 23:20:00,0,8557,20,0.00,0,0,0,0,3295,13170,3374,9774,20,20,0,20,0.00,0.00,0.00,0.00
2017-08-22 23:30:00,0,7182,20,0.00,0,0,0,0,4221,11276,2363,6472,20,20,0,20,0.00,0.00,0.00,0.00
2017-08-22 23:40:00,0,9036,10,0.00,0,0,0,0,5125,15023,3635,7664,4,20,8,4,0.00,0.00,0.00,0.00
2017-08-22 23:50:00,0,5195,4,0.00,0,0,0,0,2711,7179,1382,5172,4,4,0,4,0.00,0.00,0.00,0.00
